Wetbulb
59.81 59.88 59.70 59.55 59.58 59.60 59.52 59.52 59.37 59.26 59.09 58.56 58.69 58.85 58.98 59.14 59.35 61.33 57.18 59.10 63.63 67.41 67.01 65.69 66.84 69.71 70.65 70.63 70.92 70.26 61.97 57.43 58.77 59.41 62.27 65.83 64.39 67.17 67.73 65.43 65.81 67.34 66.49 68.98 70.75
59.57 59.61 59.46 59.52 59.46 59.53 59.51 59.49 59.45 59.34 59.09 58.66 58.49 58.78 59.23 59.33 61.22 57.78 62.19 62.91 63.41 68.52 63.32 64.03 65.56 67.94 67.53 67.96 68.73 66.81 60.70 59.30 65.10 64.41 63.15 64.45 65.04 65.00 64.20 64.42 64.88 65.74 68.87 70.33 70.70
59.37 59.43 59.21 59.21 59.27 59.25 59.29 59.33 59.35 59.03 58.73 58.43 58.33 58.75 59.34 60.45 60.64 61.03 67.14 64.97 68.60 70.18 66.17 64.38 67.87 67.80 66.08 67.69 65.75 66.64 62.61 63.93 63.06 66.74 65.55 64.86 64.94 65.61 63.29 62.72 65.20 65.15 67.48 69.06 69.80
58.95 58.97 58.90 58.79 59.00 58.96 59.13 59.13 58.86 57.97 57.75 58.40 58.45 59.02 59.97 62.27 53.65 64.14 68.25 68.76 69.55 66.81 62.28 63.33 66.49 65.74 63.94 61.26 67.20 63.57 65.89 64.74 63.74 66.67 64.98 64.19 65.32 62.68 65.36 65.17 67.69 68.34 68.99 68.95 68.51
58.65 58.54 58.56 58.49 58.23 57.94 57.89 57.48 56.94 56.90 57.29 58.43 59.06 59.50 61.31 59.93 59.31 69.31 68.40 68.15 64.10 62.83 62.90 65.65 66.08 66.01 62.09 64.89 65.18 64.53 65.24 66.02 65.55 66.42 66.32 66.89 63.64 62.41 64.96 66.99 68.61 68.63 68.56 68.81 68.68
58.27 58.37 58.29 57.47 57.27 57.14 57.05 56.86 56.87 56.27 56.88 57.86 59.48 59.26 62.20 55.95 64.69 66.79 62.05 60.92 61.06 60.03 65.16 67.82 66.70 67.92 65.07 64.87 64.17 66.64 66.56 65.31 64.19 65.79 65.99 64.59 64.61 65.67 65.29 67.46 67.63 67.78 67.35 67.45 67.33
57.98 57.82 57.96 57.17 57.11 57.24 56.40 56.06 56.11 56.32 56.93 58.11 59.66 61.82 61.01 59.49 64.88 62.14 60.59 59.28 60.04 59.47 63.77 69.03 69.83 67.21 65.45 64.41 68.04 67.19 63.60 64.36 63.20 62.37 65.27 66.73 62.04 62.15 66.66 67.23 66.14 66.61 67.29 67.41 68.32
57.69 57.64 57.30 56.87 56.89 56.51 55.84 54.98 55.65 57.67 57.90 58.88 59.66 63.94 57.55 63.64 65.32 62.39 61.41 58.40 59.47 60.13 63.22 69.09 69.22 65.05 63.92 68.04 65.76 63.30 63.25 56.97 61.31 63.22 63.92 64.96 58.02 64.54 67.54 66.41 65.00 65.82 66.75 67.85 67.71
57.60 57.20 56.50 56.37 56.00 55.80 55.00 54.57 57.54 58.71 59.26 60.02 63.12 62.81 55.21 60.86 60.48 63.55 63.63 56.98 58.41 58.91 62.04 65.96 66.79 64.40 65.57 62.46 59.45 61.94 55.47 58.11 60.07 64.56 62.08 61.97 59.93 65.11 67.77 66.28 64.06 65.15 66.43 67.21 68.17
57.51 56.29 56.12 55.85 55.76 54.97 54.26 54.34 59.46 59.12 61.24 64.19 63.46 60.01 60.01 57.22 59.73 61.98 59.38 58.25 56.48 56.51 59.57 63.86 64.72 60.20 61.53 58.90 51.01 50.40 54.45 58.28 58.27 62.43 62.72 60.04 60.33 62.71 66.46 65.44 64.15 64.53 65.83 67.02 67.20
56.86 55.91 55.52 55.65 55.38 54.38 55.84 61.52 61.40 61.27 62.29 56.63 56.61 56.64 57.86 59.62 61.00 60.21 58.43 55.55 54.92 55.81 56.46 61.20 58.78 55.75 57.44 59.72 56.58 56.71 57.29 57.88 59.97 62.09 60.27 58.23 58.92 61.67 64.84 65.27 62.96 63.99 65.74 66.19 67.07
56.38 55.64 55.57 55.24 54.69 54.22 57.28 60.17 59.17 59.84 55.41 58.08 58.06 58.01 59.10 59.88 55.06 57.95 59.99 54.43 52.74 51.06 56.75 57.78 55.39 57.72 58.97 57.60 56.53 56.48 56.14 57.81 59.98 61.50 60.11 56.31 57.58 60.76 64.84 64.27 65.61 64.87 64.65 65.18 67.15
56.02 55.39 55.10 54.57 54.00 57.44 61.63 60.23 63.15 62.15 56.72 55.97 58.11 57.96 58.21 60.18 55.71 56.33 59.18 56.73 52.76 51.43 52.20 53.31 55.85 59.06 56.41 56.37 55.55 56.34 56.46 53.85 56.48 60.09 60.71 56.79 54.17 56.65 63.95 66.62 67.51 64.72 65.98 67.22 66.72
55.79 55.44 54.67 53.57 55.03 62.51 60.99 62.83 63.76 62.49 53.64 53.53 55.53 57.18 58.48 58.02 54.20 58.75 59.88 57.19 53.90 51.63 53.15 53.22 57.89 55.88 55.45 54.82 56.03 53.20 59.09 58.23 57.00 57.61 51.82 57.97 47.93 55.04 59.66 63.40 64.54 64.97 66.94 66.61 67.11
54.91 54.29 53.13 52.28 60.55 59.77 60.80 63.81 63.46 61.31 46.59 54.03 54.64 60.21 58.17 55.83 56.01 55.52 59.19 56.20 53.52 52.41 53.76 53.75 54.74 53.42 52.97 54.74 56.91 54.91 59.03 58.98 57.97 55.27 54.21 54.91 50.18 53.97 59.63 59.17 63.14 64.63 67.01 67.09 67.26
53.96 52.69 52.95 58.34 61.82 61.72 62.88 63.40 62.22 52.09 44.90 52.01 55.30 54.07 54.82 55.32 54.91 56.06 55.94 57.91 57.19 53.28 53.72 53.78 56.68 54.88 55.49 54.66 56.04 58.60 57.92 58.56 58.34 56.06 51.95 53.98 52.59 52.24 57.17 61.23 64.11 66.49 66.62 67.92 67.17
53.02 51.72 54.15 61.94 60.13 62.37 63.21 61.30 53.01 48.40 52.94 50.66 51.87 53.63 53.83 52.92 53.47 54.33 53.37 53.22 51.95 48.81 49.47 51.28 51.95 53.81 54.52 52.63 56.39 57.73 55.55 50.06 49.29 49.98 49.05 53.65 52.98 55.08 59.95 62.58 64.19 66.13 66.86 68.26 68.67
51.50 51.18 58.80 61.75 63.55 63.16 62.10 56.62 48.65 49.75 50.45 53.59 52.22 52.75 52.44 53.37 52.98 52.74 52.09 51.77 53.04 52.19 51.09 48.36 46.40 51.85 55.23 53.14 53.67 55.79 55.07 50.43 43.52 47.18 48.11 56.33 52.18 53.59 62.15 63.40 64.99 65.28 67.44 68.54 67.15
50.84 62.71 63.10 63.57 63.76 63.45 59.08 51.67 52.11 50.77 52.45 51.72 52.47 51.63 51.74 52.94 53.08 52.59 51.95 51.52 53.08 53.79 50.48 49.72 49.19 55.06 56.15 55.95 56.01 53.92 52.85 56.89 50.88 53.10 50.95 48.22 57.95 61.69 62.74 63.17 63.77 63.51 64.66 67.11 67.53
60.80 62.56 62.82 64.37 64.46 62.13 56.48 50.41 52.28 53.73 53.26 52.72 50.14 51.68 49.53 51.63 51.07 51.90 52.25 53.77 53.03 54.01 55.61 53.28 48.86 54.33 55.88 58.12 58.69 55.71 57.69 51.92 51.38 44.54 44.47 51.37 49.53 51.38 59.56 62.39 63.34 63.95 65.16 66.17 66.88
61.16 59.37 63.59 64.68 64.00 58.86 53.33 53.64 53.13 55.19 54.71 51.96 51.20 51.14 51.15 50.92 51.94 51.83 52.07 54.36 54.29 54.28 55.23 53.95 52.12 50.82 55.17 54.88 53.67 55.30 53.40 53.95 54.77 55.07 48.68 47.93 48.25 59.10 62.26 63.61 62.20 63.03 64.92 64.95 66.64
60.18 55.12 64.19 64.33 56.50 56.55 54.85 53.89 50.25 54.27 55.10 53.80 53.99 52.59 52.20 52.54 52.37 51.63 51.14 53.65 55.89 55.30 52.54 55.13 52.21 49.69 51.62 55.05 54.98 52.02 52.13 54.52 51.26 48.38 47.73 45.09 49.71 62.79 64.56 65.17 65.18 62.80 63.49 65.43 65.53
57.92 58.20 63.89 62.79 52.64 54.68 55.83 54.44 54.56 53.92 53.83 53.05 52.24 52.74 53.88 52.63 50.52 52.32 52.97 55.67 55.36 55.03 54.35 55.35 51.65 46.86 48.84 52.40 55.84 51.48 53.20 52.55 51.57 53.09 49.76 47.14 50.75 61.97 64.21 65.29 65.95 64.96 62.94 63.18 65.23
57.63 52.39 57.76 59.52 58.68 55.97 55.76 54.37 53.15 55.33 54.40 53.69 53.22 53.87 52.32 51.30 53.53 51.87 52.08 54.59 54.88 55.13 58.81 58.00 51.68 50.05 46.40 47.30 52.90 52.09 53.15 54.08 51.32 48.07 46.13 49.21 48.24 59.56 61.71 63.07 65.46 65.11 65.37 64.18 66.96
58.61 53.31 57.16 55.59 55.02 55.92 55.97 55.56 53.60 52.65 54.70 55.02 53.26 52.60 51.31 49.44 50.01 50.15 51.60 52.47 54.47 57.23 55.46 54.97 50.23 51.68 52.64 52.53 53.06 51.60 48.96 50.22 52.83 53.28 49.23 51.47 52.70 59.01 62.27 62.19 62.64 62.82 65.41 65.51 65.64
55.69 56.83 59.11 57.51 57.66 57.76 53.42 54.92 53.92 53.73 54.10 52.55 52.17 53.39 52.72 50.89 51.79 50.09 51.68 51.98 51.72 55.64 54.29 55.86 51.18 52.00 50.05 52.09 51.79 49.89 51.64 53.09 53.20 54.40 51.15 52.25 49.72 63.11 63.77 63.12 61.57 61.58 61.86 62.11 62.97
59.21 58.16 56.46 52.24 54.81 55.18 55.04 55.65 54.48 55.69 55.70 55.27 54.63 53.48 52.38 52.93 54.16 54.88 54.61 53.86 54.31 53.48 53.56 53.66 52.08 50.89 47.70 50.63 51.32 48.17 50.88 51.65 54.44 54.92 54.90 52.44 59.02 63.51 62.73 60.78 61.68 60.68 60.30 60.27 60.08
MSLP
1017.66 1017.46 1017.25 1017.01 1016.70 1016.36 1016.10 1015.87 1015.63 1015.45 1015.23 1015.05 1014.81 1014.52 1014.22 1013.88 1013.13 1012.40 1010.05 1009.83 1009.51 1009.75 1009.80 1008.15 1007.77 1006.97 1006.22 1004.96 1005.41 1005.40 1005.07 1005.56 1004.89 1005.20 1005.47 1006.00 1006.33 1007.01 1007.07 1007.35 1007.12 1007.48 1008.23 1009.57 1010.97
1017.63 1017.43 1017.22 1016.96 1016.67 1016.34 1016.01 1015.75 1015.54 1015.30 1015.09 1014.89 1014.69 1014.41 1014.13 1013.85 1012.27 1009.93 1009.80 1009.67 1009.83 1009.79 1009.02 1007.57 1006.77 1006.24 1005.16 1005.41 1005.26 1004.87 1006.05 1007.53 1006.89 1005.59 1005.44 1006.11 1006.39 1006.61 1006.87 1007.05 1007.53 1008.02 1008.66 1010.28 1011.16
1017.69 1017.37 1017.08 1016.83 1016.55 1016.25 1015.93 1015.67 1015.40 1015.19 1014.92 1014.72 1014.51 1014.27 1013.97 1013.63 1010.91 1008.22 1009.51 1009.71 1009.75 1009.63 1008.48 1007.03 1006.11 1005.60 1005.45 1005.51 1006.08 1005.57 1006.41 1008.03 1007.93 1006.73 1005.79 1006.41 1006.62 1006.64 1006.36 1006.73 1007.61 1008.08 1009.27 1010.52 1010.91
1017.73 1017.40 1017.01 1016.68 1016.41 1016.10 1015.81 1015.54 1015.29 1015.11 1014.81 1014.51 1014.28 1014.03 1013.75 1012.60 1008.83 1008.59 1009.49 1009.61 1009.65 1009.05 1007.77 1006.86 1006.04 1005.23 1006.01 1006.16 1005.29 1006.51 1007.61 1008.47 1009.06 1007.93 1006.59 1006.82 1007.42 1007.51 1006.59 1006.53 1007.68 1008.49 1009.61 1010.32 1010.62
1017.64 1017.34 1016.95 1016.59 1016.33 1016.03 1015.72 1015.44 1015.21 1014.92 1014.56 1014.25 1014.00 1013.80 1013.12 1010.27 1008.27 1008.74 1009.55 1009.57 1009.12 1008.25 1006.99 1006.11 1005.40 1005.21 1005.94 1005.11 1005.87 1006.33 1008.13 1008.89 1009.33 1008.36 1007.65 1007.35 1007.62 1007.96 1007.39 1007.66 1008.21 1008.83 1009.60 1009.92 1010.17
1017.49 1017.15 1016.75 1016.42 1016.13 1015.81 1015.53 1015.27 1014.95 1014.70 1014.31 1014.02 1013.79 1013.68 1011.83 1008.28 1008.21 1008.65 1008.53 1008.76 1007.75 1007.39 1006.33 1005.72 1004.79 1005.00 1004.88 1005.42 1005.61 1006.55 1008.03 1009.34 1010.08 1009.51 1008.84 1007.68 1007.40 1007.47 1007.91 1007.93 1008.41 1009.03 1009.39 1009.74 1010.21
1017.35 1016.98 1016.60 1016.25 1015.89 1015.53 1015.27 1014.95 1014.63 1014.31 1013.98 1013.72 1013.58 1012.84 1009.48 1008.41 1008.05 1008.21 1008.03 1007.59 1007.43 1006.91 1006.13 1005.53 1005.11 1005.43 1004.81 1005.30 1006.29 1007.14 1008.33 1009.56 1010.29 1010.38 1009.13 1008.37 1008.03 1007.39 1007.87 1008.09 1008.61 1008.85 1009.25 1009.91 1010.28
1017.25 1016.81 1016.38 1016.02 1015.63 1015.31 1014.99 1014.66 1014.25 1013.84 1013.55 1013.41 1013.37 1011.70 1008.75 1008.32 1007.97 1008.00 1007.71 1007.62 1007.58 1007.18 1006.44 1006.26 1006.13 1005.24 1004.67 1005.64 1005.89 1006.48 1007.67 1009.13 1010.35 1010.58 1010.51 1010.03 1008.15 1007.74 1007.90 1008.17 1008.50 1008.67 1009.05 1009.79 1010.43
1017.15 1016.67 1016.19 1015.77 1015.43 1015.10 1014.75 1014.35 1013.81 1013.37 1013.26 1013.07 1012.41 1010.49 1008.00 1008.97 1007.95 1007.35 1007.25 1007.01 1007.21 1006.99 1006.99 1006.92 1006.35 1004.88 1004.65 1004.42 1004.63 1005.38 1006.23 1007.69 1009.60 1010.39 1010.51 1010.41 1008.33 1007.79 1007.63 1007.84 1008.37 1008.52 1008.95 1009.79 1010.12
1017.05 1016.52 1016.00 1015.57 1015.20 1014.85 1014.49 1014.27 1013.60 1013.40 1012.92 1011.62 1010.34 1008.77 1007.66 1007.02 1007.21 1007.30 1007.40 1007.20 1006.91 1006.77 1006.73 1006.53 1005.66 1004.54 1003.81 1003.81 1004.48 1006.67 1006.06 1006.45 1008.39 1009.78 1010.45 1010.29 1008.75 1008.74 1007.27 1008.14 1008.72 1009.03 1008.80 1009.39 1009.88
1016.91 1016.35 1015.81 1015.39 1014.97 1014.71 1013.81 1013.07 1012.89 1011.43 1009.79 1008.23 1007.17 1006.66 1006.66 1007.10 1007.38 1006.99 1007.15 1006.92 1006.79 1006.42 1005.51 1005.73 1004.92 1003.65 1002.70 1003.18 1005.32 1005.00 1006.02 1006.79 1008.41 1009.99 1010.45 1010.92 1009.90 1009.35 1008.19 1008.34 1009.06 1009.05 1008.62 1008.89 1009.42
1016.74 1016.18 1015.69 1015.27 1014.76 1014.46 1013.96 1009.87 1009.79 1009.18 1007.74 1007.45 1007.12 1006.49 1006.55 1006.26 1006.41 1006.62 1006.82 1006.07 1006.09 1005.33 1004.92 1004.96 1004.07 1003.11 1003.20 1004.05 1004.51 1004.41 1004.95 1006.10 1008.45 1009.87 1010.71 1011.73 1011.26 1010.45 1009.11 1008.71 1008.71 1008.80 1008.63 1008.92 1008.67
1016.57 1016.03 1015.55 1015.10 1014.62 1013.81 1010.78 1009.87 1009.19 1008.87 1006.94 1006.57 1006.15 1005.43 1005.85 1005.74 1005.39 1006.01 1006.27 1005.57 1005.25 1004.68 1004.70 1003.74 1003.03 1003.14 1004.05 1004.05 1004.24 1004.13 1005.19 1007.75 1006.91 1009.31 1010.52 1011.74 1011.82 1011.71 1010.24 1008.45 1007.94 1009.29 1008.77 1008.29 1008.43
1016.44 1015.87 1015.40 1014.93 1014.72 1010.47 1009.40 1009.18 1008.81 1008.95 1006.26 1005.67 1005.01 1005.32 1005.44 1005.05 1005.28 1005.83 1005.71 1005.31 1005.07 1004.40 1004.25 1003.65 1003.22 1003.97 1004.17 1003.78 1003.62 1003.41 1004.21 1005.49 1006.47 1008.21 1009.43 1010.86 1011.69 1011.53 1010.42 1009.19 1009.12 1008.73 1008.67 1008.13 1007.81
1016.34 1015.75 1015.26 1015.15 1012.90 1009.44 1009.34 1008.78 1008.78 1008.51 1004.85 1005.27 1004.69 1005.24 1005.01 1004.65 1005.16 1005.63 1005.87 1005.43 1004.35 1004.42 1004.57 1003.25 1003.53 1004.13 1003.63 1003.41 1003.36 1003.80 1005.15 1004.54 1005.50 1006.31 1008.54 1009.98 1010.91 1009.69 1009.45 1008.98 1008.42 1008.27 1007.79 1007.59 1006.99
1016.05 1015.53 1015.02 1013.72 1011.99 1009.49 1009.17 1008.73 1008.45 1006.91 1004.51 1004.55 1004.48 1004.32 1004.07 1004.31 1004.62 1005.37 1005.61 1005.45 1004.89 1004.49 1004.49 1003.65 1004.05 1003.97 1003.49 1003.69 1003.91 1003.75 1004.20 1004.34 1004.83 1005.28 1006.05 1007.45 1008.85 1009.17 1008.11 1006.92 1007.22 1007.20 1007.08 1007.03 1006.65
1015.64 1015.13 1014.77 1012.21 1009.38 1009.28 1009.09 1008.18 1006.47 1004.20 1005.11 1004.42 1003.73 1003.79 1003.67 1003.87 1004.31 1004.53 1004.71 1004.51 1003.85 1003.70 1003.25 1003.59 1003.57 1003.95 1004.01 1003.83 1003.66 1003.68 1003.73 1003.04 1003.26 1003.74 1004.83 1006.87 1007.71 1007.40 1006.81 1006.36 1006.04 1006.27 1006.80 1006.59 1006.37
1015.16 1014.67 1012.73 1011.09 1009.91 1009.61 1008.89 1007.20 1004.98 1004.48 1004.07 1004.41 1004.25 1004.06 1003.33 1003.91 1004.12 1004.23 1004.13 1003.51 1004.08 1003.70 1002.38 1002.28 1002.44 1003.04 1003.46 1003.47 1002.62 1003.21 1002.97 1002.96 1003.74 1003.81 1005.39 1006.47 1005.56 1007.16 1005.79 1005.68 1006.39 1006.81 1006.41 1006.16 1006.70
1014.37 1012.52 1010.68 1009.53 1009.74 1009.61 1008.25 1005.50 1003.83 1004.12 1004.23 1003.97 1004.10 1003.41 1003.29 1004.00 1004.10 1003.93 1003.93 1003.22 1003.57 1003.67 1003.10 1002.00 1002.22 1002.86 1003.18 1003.25 1003.32 1002.88 1003.44 1005.81 1004.13 1004.26 1004.80 1005.89 1004.20 1005.23 1005.26 1005.58 1005.99 1006.73 1006.65 1006.31 1006.48
1013.25 1009.86 1008.55 1009.00 1009.34 1008.92 1007.22 1005.15 1004.49 1004.71 1004.72 1004.55 1003.56 1003.84 1003.25 1003.31 1003.92 1003.51 1003.45 1004.10 1003.89 1004.46 1004.17 1003.20 1003.05 1002.86 1003.12 1003.88 1003.77 1004.32 1007.40 1005.03 1003.64 1004.34 1005.61 1005.17 1006.10 1005.05 1005.13 1005.18 1006.32 1005.99 1005.48 1005.25 1006.42
1012.68 1008.86 1008.08 1008.58 1008.84 1007.80 1005.51 1004.23 1004.72 1004.94 1005.11 1004.45 1003.99 1003.94 1003.94 1003.81 1003.96 1003.27 1003.78 1004.21 1004.68 1004.35 1004.62 1003.74 1003.25 1004.60 1004.69 1003.95 1003.81 1004.44 1006.57 1006.58 1004.86 1004.38 1006.16 1006.27 1006.35 1004.87 1005.41 1005.82 1006.39 1006.51 1006.32 1006.49 1006.31
1011.32 1008.06 1007.80 1008.05 1007.53 1005.94 1004.37 1004.71 1005.22 1004.49 1005.12 1004.61 1004.63 1004.40 1004.33 1004.38 1004.00 1003.95 1003.93 1004.30 1005.44 1005.10 1004.40 1003.99 1003.59 1003.55 1004.30 1005.29 1005.69 1007.16 1007.98 1008.76 1006.37 1007.11 1007.56 1007.84 1006.63 1005.73 1005.81 1006.28 1006.51 1007.18 1007.59 1008.49 1007.77
1011.51 1007.83 1007.27 1007.38 1006.14 1004.57 1004.41 1004.81 1004.97 1004.43 1004.43 1004.53 1004.44 1004.91 1004.93 1004.75 1004.91 1004.68 1004.63 1005.35 1005.81 1005.45 1005.15 1004.90 1004.03 1003.55 1003.73 1004.77 1005.81 1006.84 1007.69 1008.79 1009.14 1009.16 1007.75 1008.00 1006.45 1005.91 1006.16 1006.36 1007.31 1007.81 1007.96 1008.66 1008.53
1012.78 1008.43 1006.52 1006.69 1006.01 1004.84 1003.83 1004.31 1004.33 1004.75 1004.49 1004.79 1004.73 1005.18 1005.08 1005.01 1005.05 1005.04 1004.97 1005.06 1006.12 1006.01 1006.57 1006.53 1005.10 1004.29 1004.97 1006.34 1007.01 1006.69 1006.49 1005.97 1006.85 1008.72 1008.84 1008.45 1008.14 1006.45 1006.50 1007.31 1007.97 1009.28 1009.55 1009.13 1009.39
1012.50 1008.80 1006.57 1005.32 1005.36 1005.05 1004.67 1004.17 1004.03 1003.89 1004.76 1004.90 1004.98 1005.14 1004.90 1004.79 1004.71 1004.92 1005.09 1004.99 1005.41 1006.28 1006.48 1005.89 1005.09 1004.54 1004.65 1005.25 1005.89 1006.19 1006.47 1005.51 1004.32 1004.48 1006.38 1007.41 1007.43 1006.45 1007.28 1008.42 1009.76 1010.87 1011.08 1011.39 1011.53
1012.63 1010.59 1008.68 1007.39 1005.98 1005.60 1004.63 1004.50 1004.17 1003.91 1003.91 1004.41 1004.90 1004.65 1004.99 1005.19 1005.19 1005.19 1005.28 1005.40 1005.36 1005.23 1005.82 1005.43 1005.15 1005.29 1004.88 1004.40 1004.06 1004.33 1004.78 1003.57 1003.56 1004.12 1006.12 1007.84 1006.60 1006.63 1008.50 1009.18 1010.38 1011.68 1012.53 1012.89 1012.88
1013.25 1012.47 1011.64 1009.04 1007.06 1005.88 1005.02 1004.35 1004.41 1004.19 1003.97 1004.07 1004.26 1004.77 1004.66 1005.16 1005.67 1006.09 1006.17 1005.96 1005.94 1006.25 1006.04 1005.79 1005.64 1005.31 1004.56 1004.63 1004.52 1003.80 1003.36 1003.23 1003.42 1003.80 1005.25 1005.03 1006.41 1006.79 1007.98 1009.75 1011.01 1012.07 1012.92 1013.73 1014.03
Wind_Speed
11 11 11 11 11 11 10 10 10 10 9 9 10 11 11 12 17 10 8 5 4 4 7 11 10 11 11 11 3 8 3 3 6 12 13 9 11 7 7 10 7 8 16 19 18
13 12 12 11 11 11 11 10 10 10 10 10 10 11 11 11 13 12 6 3 1 6 13 11 11 10 12 1 4 7 4 6 9 3 14 11 9 11 12 11 10 12 21 21 17
14 13 13 12 12 11 11 11 11 10 10 10 10 11 11 13 12 7 5 4 6 8 16 11 11 12 1 4 9 3 1 6 9 13 9 15 7 3 11 12 13 14 19 20 18
13 13 13 13 13 12 11 11 12 11 11 11 10 10 10 12 0 9 6 8 7 11 11 11 12 10 1 5 2 6 7 7 2 9 5 9 13 6 7 12 11 15 19 18 15
13 13 12 12 13 13 13 12 12 11 12 11 10 9 10 11 9 10 9 9 11 12 13 11 13 8 4 1 6 9 9 7 3 4 5 4 15 5 9 9 17 18 18 17 15
13 13 13 13 13 14 14 13 13 12 13 11 9 9 10 4 3 10 11 12 10 10 10 10 9 5 7 6 2 8 10 9 5 6 2 8 9 11 10 15 16 16 16 15 13
14 14 14 14 15 15 15 14 14 13 12 11 8 9 10 11 3 8 11 10 7 9 9 5 5 10 1 3 7 12 11 8 4 6 5 11 7 10 13 15 16 16 15 13 12
14 15 15 15 15 15 15 15 15 13 11 10 7 10 7 3 3 6 6 5 6 5 11 4 6 9 15 12 10 11 10 7 11 12 7 7 9 10 16 16 17 16 14 15 10
15 15 16 15 14 13 13 16 13 6 9 8 9 10 10 4 10 7 4 5 8 6 5 4 11 14 7 14 13 12 7 10 9 9 6 8 8 17 17 17 15 14 15 15 13
16 17 15 14 12 11 12 9 4 6 9 9 9 10 10 5 7 4 3 4 7 9 9 11 8 11 13 9 3 2 15 9 6 8 7 11 16 6 17 14 12 14 15 15 13
17 17 15 12 11 10 13 6 8 9 14 9 8 9 8 9 7 8 5 8 8 11 12 13 11 12 14 4 2 6 4 12 6 6 3 2 14 8 7 13 9 14 15 16 15
18 17 14 13 12 9 9 5 10 7 3 4 5 7 1 3 8 8 8 9 8 13 14 10 13 13 6 6 5 7 8 9 6 5 3 1 6 8 18 14 21 15 14 10 16
19 17 14 13 12 7 5 7 8 7 8 4 3 4 8 12 6 10 13 2 10 11 9 13 13 4 1 10 10 10 7 11 3 7 2 4 4 3 17 12 11 10 10 19 16
20 16 14 13 6 2 1 6 6 4 8 12 8 7 8 3 7 3 6 6 5 9 10 14 8 1 9 13 8 13 1 4 5 9 6 8 2 9 15 15 15 19 16 18 18
21 17 15 7 12 8 6 8 8 7 6 3 7 4 2 7 7 9 3 7 6 6 9 10 3 6 10 12 10 2 6 11 6 10 13 11 3 7 15 12 19 21 21 19 19
23 20 13 7 8 6 7 9 7 10 3 8 4 6 12 5 5 8 8 8 6 3 10 15 1 7 14 2 10 13 7 9 11 13 12 13 11 5 10 16 22 21 19 20 19
23 17 8 8 4 6 9 8 11 7 4 7 3 5 1 6 7 10 9 12 9 12 13 13 13 12 8 12 8 10 15 13 11 7 3 10 14 5 16 7 12 19 21 20 17
21 12 11 9 8 8 9 11 10 5 3 5 4 6 3 3 6 3 6 9 6 10 6 10 14 14 12 16 8 15 19 9 4 4 5 19 9 5 8 5 11 11 20 18 17
20 7 9 7 7 6 10 12 1 3 4 4 7 10 9 9 7 6 3 7 6 5 10 5 7 6 2 10 10 8 12 25 11 1 12 5 17 11 4 10 5 13 20 23 22
7 8 7 7 7 8 11 10 2 4 3 6 10 1 4 7 7 6 3 6 1 2 11 5 9 9 11 8 14 5 17 10 8 4 11 5 3 5 9 9 2 8 15 17 18
8 8 9 9 6 8 12 3 3 6 6 6 1 7 8 3 8 3 3 10 2 5 5 16 12 3 21 12 16 8 11 16 12 4 2 1 3 10 9 8 7 6 2 9 20
8 10 9 7 9 11 11 4 4 8 8 7 6 7 6 4 9 5 4 5 2 8 12 6 13 8 10 12 12 6 9 20 10 9 6 9 6 10 8 9 7 9 6 8 9
8 9 9 8 12 11 9 6 8 8 9 5 6 4 1 7 5 6 1 8 4 11 11 14 8 11 8 15 20 10 19 11 9 6 6 10 2 5 7 8 7 9 9 5 5
7 7 8 9 13 17 12 10 13 11 9 4 3 2 6 9 8 6 7 9 2 8 6 8 16 16 4 5 12 20 19 18 17 12 10 8 13 7 5 8 11 9 6 3 6
7 9 7 6 13 15 15 9 14 11 11 10 7 8 5 5 5 8 9 9 10 8 9 13 14 15 8 9 18 10 7 32 11 10 1 7 17 8 7 6 9 6 5 8 9
6 7 9 12 17 13 14 12 16 15 11 12 12 11 8 6 7 9 11 6 8 6 7 9 10 10 13 16 14 13 18 17 7 11 7 22 20 22 13 8 7 8 6 4 6
6 9 6 11 15 14 14 15 17 15 14 9 11 10 7 5 5 8 8 10 7 5 12 7 12 11 12 1 11 11 14 12 17 1 12 6 6 8 11 10 6 6 8 7 7
Wind_Direction
340 339 338 335 331 331 330 326 322 318 314 312 310 309 308 310 296 232 247 29 45 251 256 221 222 225 232 236 225 252 3 236 144 123 120 138 119 65 72 141 168 84 147 135 141
342 341 339 335 331 328 326 324 320 317 313 310 308 305 307 313 271 239 82 100 271 231 223 208 209 212 241 217 237 290 178 351 9 142 124 122 95 133 155 129 123 129 111 129 157
342 340 338 335 331 328 325 321 316 314 312 308 303 302 305 300 258 97 85 164 196 224 253 234 245 239 114 108 299 334 76 119 345 319 123 107 142 175 133 143 150 134 133 151 167
339 339 336 333 330 327 324 320 317 313 311 304 296 299 306 261 250 70 147 176 208 252 249 223 231 221 255 51 86 92 98 121 318 294 122 145 102 312 28 92 129 140 145 158 170
338 335 332 331 330 325 321 318 309 307 300 297 293 302 274 214 57 97 153 181 204 222 228 211 216 176 165 176 104 114 103 110 95 274 346 114 122 186 99 118 132 139 157 168 173
336 332 330 329 326 322 318 312 305 300 292 289 288 298 245 208 57 133 167 182 217 224 227 221 239 53 250 154 45 104 125 111 68 347 152 239 150 169 133 136 138 148 157 166 160
334 329 326 324 321 319 317 311 304 292 280 274 276 270 265 73 103 147 176 197 186 240 211 268 330 221 26 185 111 119 139 142 97 340 318 319 185 167 147 145 147 165 164 150 160
332 329 326 322 320 317 314 310 301 282 262 258 259 259 83 92 77 188 161 176 216 211 281 130 268 286 260 153 147 195 148 167 172 194 245 272 221 141 158 158 161 168 166 148 161
329 330 326 321 318 314 308 309 299 260 232 236 238 230 119 137 213 162 252 217 190 196 232 239 247 254 197 219 194 190 170 197 145 196 213 236 212 158 175 173 171 167 165 155 173
331 332 327 323 316 308 304 289 315 241 217 222 266 257 167 101 128 161 129 172 184 184 191 216 233 236 233 235 308 129 302 130 161 124 214 233 244 313 170 179 182 176 167 163 181
335 334 328 319 311 312 305 201 202 193 216 338 59 78 129 93 166 192 184 187 197 206 202 207 228 222 226 173 342 242 270 78 72 102 211 261 278 246 184 186 172 165 189 173 171
338 335 327 319 307 305 269 312 30 353 119 121 93 106 79 198 146 161 211 215 202 213 231 182 234 242 46 344 276 291 268 124 131 145 209 148 268 306 261 201 162 183 201 174 174
339 333 323 315 315 270 306 20 329 318 248 144 88 87 134 221 115 149 223 212 217 227 223 235 214 147 200 219 247 235 79 300 88 149 126 132 278 310 257 203 179 189 213 181 204
336 329 323 320 292 351 136 348 325 294 260 140 178 104 180 253 98 116 261 296 218 226 217 242 107 233 231 256 233 263 6 182 285 169 242 179 18 239 220 201 200 199 215 230 198
336 329 318 279 317 264 0 320 323 247 250 99 98 75 121 265 129 154 191 212 250 198 245 212 163 219 239 238 241 133 300 261 260 262 131 172 151 282 177 211 200 201 206 215 205
334 328 315 209 229 299 296 306 259 235 116 145 169 200 198 182 113 119 193 239 344 248 228 293 142 274 257 78 278 278 236 239 230 247 242 157 217 191 210 209 192 203 200 224 196
329 320 267 310 315 336 302 264 234 273 104 164 185 223 13 123 141 181 186 200 225 206 193 197 217 218 249 238 198 220 234 241 215 228 306 161 203 166 222 186 202 189 212 208 218
323 311 201 266 308 285 275 243 265 31 281 100 243 200 269 201 111 140 180 221 172 283 280 221 180 195 183 243 235 204 243 269 283 227 180 273 148 209 117 125 163 206 224 197 199
314 202 234 196 229 263 259 246 136 261 62 243 186 249 149 146 290 237 297 360 42 304 322 290 185 168 240 228 254 238 214 233 253 255 293 121 119 75 124 136 190 187 227 212 198
296 227 173 154 199 250 249 275 352 308 265 252 265 176 265 142 234 232 148 97 146 288 301 352 252 199 178 240 240 121 332 260 225 195 241 149 18 86 25 76 27 292 227 214 173
250 230 119 168 226 237 247 82 225 176 232 263 290 265 260 277 291 271 118 119 207 308 267 300 285 58 308 206 257 196 167 239 239 59 13 143 315 59 74 67 70 51 51 336 159
287 243 138 182 234 234 262 183 14 165 198 237 298 317 283 49 248 245 281 98 14 301 291 294 311 267 228 327 81 358 340 323 344 6 96 298 138 67 44 77 58 90 47 113 305
275 264 157 225 244 233 226 224 225 222 209 213 237 234 114 278 279 262 45 80 305 279 13 340 268 274 206 228 175 153 209 210 102 297 349 336 90 73 92 79 80 90 93 17 306
276 247 208 207 257 283 266 204 214 215 292 261 298 263 226 238 213 281 232 167 220 289 29 294 274 280 146 284 285 302 325 186 157 204 141 221 257 162 147 97 82 64 129 220 301
243 263 324 246 215 235 260 252 235 227 207 205 210 251 250 275 242 235 239 262 186 155 243 252 273 290 181 203 209 210 324 290 236 282 306 67 301 125 103 96 83 81 4 71 67
304 338 340 283 283 283 220 239 251 250 201 213 235 241 227 253 291 325 323 282 281 175 246 263 267 286 292 286 270 273 244 287 259 278 104 180 204 171 133 114 100 94 71 72 49
10 289 267 287 270 249 251 235 247 241 260 218 246 227 225 248 24 322 300 294 269 299 284 303 295 298 272 227 317 278 277 254 299 29 323 294 350 94 126 117 99 90 70 47 48